Weather History for KCTY - May, 2012

Change the Weather History Date:

Sunday, May 6, 2012

  Actual Average Record
Temperature  
Mean Temperature 76 °F 72 °F  
Max Temperature 89 °F 85 °F - ()
Min Temperature 63 °F 58 °F - ()
Degree Days  
Heating Degree Days 0 0  
Month to date heating degree days 0  
Since 1 July heating degree days 1303  
Cooling Degree Days 11 7  
Month to date cooling degree days 38  
Year to date cooling degree days 220  
Growing Degree Days 26 (Base 50)    
Moisture  
Dew Point 65 °F    
Average Humidity 71    
Maximum Humidity 96    
Minimum Humidity 33    
Precipitation  
Precipitation 0.00 in 0.09 in - ()
Month to date precipitation 0.40  
Year to date precipitation 14.88  
Sea Level Pressure  
Sea Level Pressure 29.94 in    
Wind  
Wind Speed 4 mph (West)    
Max Wind Speed 13 mph    
Max Gust Speed 20 mph    
T = Trace of Precipitation, MM = Missing Value Source: NWS Daily Summary

Daily Weather History Graph

Daily Weather History Graph

Search for Another Location

Airport or City:

Trip Planner

Search our weather history database for the weather conditions in past years. The results will help you decide how hot, cold, wet, or windy it might be!

Date:

Astronomy

May. 06, 2012 Rise Set
Actual Time 6:45 AM EDT 8:12 PM EDT
Civil Twilight 6:20 AM EDT 8:38 PM EDT
Nautical Twilight 5:49 AM EDT 9:08 PM EDT
Astronomical Twilight 5:17 AM EDT 9:40 PM EDT
Moon 9:10 PM EDT (5/6) 6:58 AM EDT (5/6)
Length of Visible Light 14h 18m
Length of Day
13h 27m
Full, 100% of the Moon is Illuminated
May 6
Full
May 12
Last Quarter
May 20
New
May 28
First Quarter
Jun 4
Full

Hourly Weather History & Observations

Time (EDT) Temp. Heat Index Dew Point Humidity Pressure Visibility Wind Dir Wind Speed Gust Speed Precip Events Conditions
12:53 AM 71.1 °F - 68.0 °F 90% 29.95 in - West 3.5 mph - N/A   Unknown
1:53 AM 71.1 °F - 68.0 °F 90% 29.94 in - WNW 3.5 mph - N/A   Unknown
2:53 AM 71.1 °F - 68.0 °F 90% 29.94 in - WNW 5.8 mph - N/A   Unknown
3:53 AM 69.1 °F - 66.9 °F 93% 29.94 in - Calm Calm - N/A   Unknown
4:53 AM 66.0 °F - 64.9 °F 96% 29.94 in - Calm Calm - N/A   Unknown
5:53 AM 64.0 °F - 63.0 °F 96% 29.93 in - Calm Calm - N/A   Unknown
6:53 AM 63.0 °F - 61.0 °F 93% 29.95 in - Calm Calm - N/A   Unknown
7:53 AM 69.1 °F - 66.0 °F 90% 29.96 in - Calm Calm - N/A   Unknown
8:53 AM 75.0 °F - 66.9 °F 76% 29.98 in - West 3.5 mph - N/A   Unknown
9:53 AM 79.0 °F - 68.0 °F 69% 29.98 in - Variable 4.6 mph - N/A   Unknown
10:53 AM 84.0 °F 86.3 °F 66.0 °F 55% 29.97 in - WNW 5.8 mph - N/A   Unknown
11:53 AM 84.9 °F 86.1 °F 64.0 °F 49% 29.97 in - West 11.5 mph - N/A   Unknown
12:53 PM 86.0 °F 87.6 °F 64.9 °F 49% 29.96 in - West 9.2 mph 17.3 mph N/A   Unknown
1:53 PM 88.0 °F 88.7 °F 63.0 °F 43% 29.96 in - West 10.4 mph 17.3 mph N/A   Unknown
2:53 PM 88.0 °F 88.7 °F 63.0 °F 43% 29.94 in - West 11.5 mph 17.3 mph N/A   Unknown
3:53 PM 86.0 °F 87.6 °F 64.9 °F 49% 29.91 in - West 10.4 mph - N/A   Unknown
4:53 PM 87.1 °F 88.9 °F 64.9 °F 48% 29.90 in - WSW 11.5 mph 19.6 mph N/A   Unknown
5:53 PM 84.0 °F 85.8 °F 64.9 °F 53% 29.92 in - SW 12.7 mph 18.4 mph N/A   Unknown
6:53 PM 81.0 °F 82.7 °F 64.9 °F 58% 29.92 in - WSW 10.4 mph - N/A   Unknown
7:53 PM 78.1 °F - 66.9 °F 68% 29.94 in - West 5.8 mph - N/A   Unknown
8:53 PM 75.0 °F - 66.9 °F 76% 29.95 in - Calm Calm - N/A   Unknown
9:53 PM 73.9 °F - 64.9 °F 73% 29.95 in - Calm Calm - N/A   Unknown
10:53 PM 70.0 °F - 64.9 °F 84% 29.93 in - Calm Calm - N/A   Unknown
11:53 PM 66.9 °F - 64.0 °F 90% 29.91 in - Calm Calm - N/A   Unknown